Temperature
21 21 20 20 19 19 20 20 21 21 21 21 21 21 20 19 20 20 20 20 20 20 20 20 20 20 20 20 20 20 20 20 20 20 20 20 20 19 19 19 19 19 19 19 19 19 19 19 19
21 21 21 21 19 19 20 20 20 21 21 22 21 20 19 19 19 19 20 20 20 20 20 20 20 20 20 20 20 20 20 20 20 20 20 19 19 19 19 19 19 19 19 19 19 19 19 19 19
22 21 21 19 19 19 20 20 20 21 21 21 20 20 19 18 19 19 20 20 20 20 20 20 20 20 19 20 20 20 20 20 20 20 19 19 19 19 19 19 19 19 19 19 19 19 19 19 18
22 22 21 19 20 19 19 19 20 21 21 20 20 19 18 18 19 19 19 20 19 19 19 19 19 19 19 19 19 19 19 19 19 19 19 19 19 19 19 19 19 19 19 19 19 19 19 18 18
22 22 19 19 20 19 19 19 20 20 20 19 19 18 18 18 19 19 19 19 19 19 19 19 19 19 19 19 19 19 19 19 19 19 19 19 19 19 19 19 19 19 19 19 19 19 18 18 18
23 20 19 20 20 20 19 19 19 19 19 19 19 18 17 18 18 19 19 19 18 18 18 18 19 19 19 19 19 19 19 19 19 19 19 19 19 19 19 19 19 19 19 19 18 18 18 18 18
22 19 20 20 20 20 20 19 18 18 18 18 18 18 18 18 18 18 18 18 18 18 18 18 18 18 18 18 18 18 19 19 19 19 19 19 19 19 19 19 19 19 19 19 18 18 18 18 18
23 19 20 19 20 20 19 19 18 18 18 17 18 17 17 17 17 18 18 18 18 18 18 18 18 18 18 18 18 18 18 18 18 18 18 18 18 18 19 19 19 19 18 18 18 18 18 18 18
23 19 19 20 20 19 19 19 18 18 17 17 17 17 17 17 17 18 18 18 18 18 18 17 17 18 18 18 18 18 18 18 18 18 18 18 18 18 18 18 18 18 18 18 18 18 18 18 18
22 19 20 19 19 18 18 18 18 18 17 17 17 17 17 17 17 17 17 17 17 17 17 17 17 17 17 17 17 18 18 18 18 18 18 18 18 18 18 18 18 18 18 18 18 18 18 18 18
21 20 20 19 19 18 18 17 18 18 16 17 17 17 17 17 17 17 17 17 17 17 17 17 17 17 17 17 17 17 17 18 18 18 18 18 18 18 18 18 18 18 18 18 18 18 18 18 18
20 19 19 19 19 19 18 18 17 17 17 17 17 17 17 17 17 17 16 16 16 16 16 16 16 16 16 17 17 17 17 17 17 18 17 18 18 18 18 18 18 18 18 18 18 18 18 18 18
20 19 19 19 19 18 18 17 17 17 17 17 17 17 17 16 16 16 16 16 16 16 16 16 16 16 16 16 16 16 17 17 17 17 17 17 17 18 18 18 18 18 18 18 18 18 18 18 18
19 18 18 19 18 18 17 17 17 17 17 17 17 16 16 16 16 16 16 15 15 15 15 15 15 15 15 15 15 16 16 16 16 17 17 17 17 17 17 18 18 18 18 18 18 18 18 18 18
19 18 18 18 18 18 18 17 16 17 17 17 16 16 16 16 16 15 15 15 15 15 15 15 15 15 15 15 15 15 15 16 16 16 16 16 17 17 17 17 18 18 18 18 18 18 18 18 18
20 18 18 18 18 18 18 17 16 16 17 16 16 16 16 15 15 15 15 14 14 14 14 14 14 14 14 14 14 15 15 15 15 15 16 16 16 17 17 17 17 17 17 17 17 18 17 17 18
19 19 19 18 18 18 17 16 16 16 16 15 15 15 15 15 15 15 14 14 14 14 14 14 14 14 14 14 14 14 14 14 15 15 15 15 16 16 16 16 17 17 17 17 17 17 17 17 17
20 19 19 18 18 17 16 16 15 16 15 15 15 15 15 15 15 14 14 14 14 13 13 13 13 13 13 13 14 14 14 14 14 14 15 15 15 15 16 16 16 16 17 17 17 17 17 17 17
21 20 19 18 18 17 16 15 15 15 15 15 15 15 15 15 14 14 14 14 13 13 13 13 13 13 13 13 13 13 14 14 14 14 14 14 15 15 15 15 16 16 16 16 16 17 17 17 17
20 19 19 18 18 17 15 15 15 15 15 15 15 15 15 15 14 14 14 13 13 13 13 13 13 13 13 13 13 13 13 13 13 13 14 14 14 14 15 15 15 15 16 16 16 16 16 16 16
20 19 19 18 16 15 16 15 15 15 15 15 15 15 15 14 14 14 14 13 13 13 13 12 12 12 12 12 12 12 13 13 13 13 13 14 14 14 14 14 15 15 15 15 16 16 16 16 16
20 20 19 18 16 15 16 14 14 14 14 14 15 15 15 14 14 14 13 13 13 12 12 12 12 12 12 12 12 12 12 12 12 12 13 13 13 13 14 14 14 15 15 15 15 15 16 16 16
20 18 18 17 16 15 15 14 13 13 13 13 14 15 15 14 14 14 13 13 13 12 12 12 12 12 12 12 12 12 12 12 12 12 12 13 13 13 13 14 14 14 14 15 15 15 15 15 15
18 16 15 13 14 15 15 14 14 12 13 14 14 15 15 14 14 14 13 13 13 12 12 12 12 12 12 12 12 12 12 12 12 12 12 13 13 13 13 13 14 14 14 14 15 15 15 15 15
17 15 15 15 14 14 15 14 14 14 13 14 14 15 15 14 14 13 13 13 13 12 12 12 12 12 12 12 12 12 12 12 12 12 12 12 13 13 13 13 13 14 14 14 14 14 15 15 15
17 16 15 16 15 14 14 14 14 15 15 15 15 15 15 14 14 14 13 13 13 12 12 12 12 12 12 12 12 12 11 12 12 12 12 12 12 12 13 13 13 14 14 14 14 14 14 15 15
17 15 15 13 15 14 14 14 14 14 14 14 14 14 14 14 14 14 13 13 13 12 12 12 12 12 12 12 12 11 11 11 12 12 12 12 12 12 12 13 13 13 14 14 14 14 14 14 15
17 14 12 13 15 14 14 14 14 14 13 13 13 14 15 14 14 14 13 13 13 12 12 12 12 12 12 11 11 11 11 11 11 12 12 12 12 12 12 12 13 13 13 13 13 14 14 14 14
17 15 12 11 12 13 14 14 14 14 14 13 13 15 15 15 14 14 14 13 13 13 12 12 12 12 12 12 11 11 11 11 11 12 12 12 12 12 12 12 12 13 13 13 13 13 14 14 14
18 16 13 14 14 12 12 13 14 14 14 14 15 15 15 15 14 14 14 14 13 13 12 12 12 12 11 11 11 11 11 11 11 12 12 12 12 12 12 12 12 12 12 13 13 13 13 14 14
Wind_Speed
7 6 3 3 5 5 4 7 4 4 4 4 6 7 7 5 3 1 2 4 4 5 8 10 10 10 10 9 9 9 9 9 8 8 8 8 7 7 6 6 5 5 5 4 4 4 3 3 4
6 3 3 4 5 4 4 6 6 6 2 2 6 6 7 6 4 2 1 1 4 6 7 9 10 10 9 9 9 8 8 8 8 8 8 7 7 6 6 6 5 4 4 4 3 3 2 2 2
5 2 3 4 4 3 2 5 4 5 8 5 5 6 5 4 4 2 2 3 4 5 6 8 10 9 9 9 8 8 8 8 8 8 8 7 7 6 6 5 5 4 4 4 3 3 2 1 1
4 3 4 6 6 2 2 3 5 4 7 9 4 5 4 5 4 2 2 4 4 2 4 6 8 9 9 9 9 8 8 8 8 8 8 7 7 7 7 6 6 5 5 4 4 3 3 2 1
4 4 6 4 3 2 2 4 5 5 4 7 5 5 4 7 7 6 5 4 2 1 1 2 5 6 7 8 9 9 9 9 9 9 9 8 8 8 7 7 7 6 6 5 5 4 4 3 1
4 4 5 2 1 1 2 5 4 6 5 6 6 4 3 7 9 6 6 6 4 3 2 2 3 5 6 7 8 9 9 10 10 10 10 10 10 9 9 8 8 7 7 6 5 5 5 4 3
4 4 4 4 2 1 2 3 5 5 6 7 6 4 3 7 9 7 7 7 7 6 4 5 5 4 5 6 7 9 9 10 11 11 11 11 11 10 10 9 9 9 8 8 7 6 6 5 4
5 5 4 2 3 1 2 3 4 6 5 5 5 5 4 6 7 7 8 9 8 7 6 7 8 8 7 7 8 8 9 10 11 12 12 12 11 11 11 10 10 10 10 9 9 8 7 6 5
4 5 3 3 4 3 2 3 4 4 5 5 6 5 4 5 6 9 8 8 8 9 7 7 7 8 9 8 8 9 10 10 10 11 12 12 11 10 10 11 11 11 11 11 10 9 8 7 5
4 4 3 2 4 5 3 4 4 4 5 5 5 6 6 7 8 9 8 8 8 8 7 6 6 7 8 8 8 8 8 8 9 8 9 10 10 10 10 11 12 12 12 12 12 11 9 7 4
4 4 3 3 5 6 5 4 3 5 5 3 3 3 5 8 8 8 7 5 5 5 6 6 5 6 7 6 7 6 7 7 7 8 8 8 8 8 9 8 9 10 11 9 9 8 7 5 4
5 4 4 5 5 4 5 5 5 4 3 3 3 3 5 7 7 6 6 6 6 6 7 7 6 6 7 7 6 5 5 5 5 7 7 6 4 5 6 6 7 8 7 6 6 5 6 6 6
5 4 4 7 10 7 7 6 6 3 3 4 5 6 6 6 5 5 5 5 6 7 8 8 7 6 6 5 5 5 4 5 7 7 7 6 4 5 4 5 6 7 7 6 5 5 5 5 5
5 8 7 7 7 4 7 4 4 2 2 5 6 5 5 5 5 5 6 7 7 7 8 8 7 6 6 5 5 4 6 7 7 7 8 7 6 4 4 5 4 5 7 7 6 5 4 4 4
7 7 5 2 3 4 5 4 1 2 4 5 5 4 4 5 5 5 5 6 6 7 7 8 8 6 7 7 6 6 7 7 5 6 8 8 7 6 5 5 5 5 7 7 5 4 4 3 4
5 5 2 3 4 4 3 2 1 3 6 4 3 3 4 4 4 5 6 6 7 7 8 8 8 8 8 7 6 6 7 6 6 7 8 8 8 7 5 5 5 5 6 4 4 3 3 4 3
2 2 3 3 5 4 4 4 2 3 5 4 2 1 3 5 5 6 6 7 7 7 7 8 8 8 8 8 7 6 6 5 6 6 6 7 8 7 5 5 4 5 4 4 5 4 4 4 3
5 5 4 4 4 4 4 3 2 3 4 3 1 1 3 5 6 6 6 7 7 7 7 8 8 8 8 7 6 5 5 4 5 5 5 7 7 7 5 4 4 4 4 5 5 4 4 3 3
5 5 3 1 2 4 4 3 3 2 3 2 1 2 4 5 6 6 6 7 8 8 8 8 9 9 7 5 5 5 5 5 5 4 6 6 6 6 4 4 4 5 5 6 6 5 4 3 3
5 4 2 2 3 3 3 1 1 2 3 4 3 4 4 5 6 7 7 7 7 8 9 8 9 9 8 6 5 4 5 5 5 5 5 6 5 5 4 4 4 5 5 6 7 5 4 4 5
3 4 4 4 3 4 3 3 3 2 1 2 3 3 4 4 6 7 8 8 8 9 9 9 9 9 9 8 6 5 4 4 4 4 5 4 6 5 4 4 4 4 5 6 7 7 7 5 4
1 1 4 5 4 1 2 4 6 4 3 4 5 4 5 6 6 7 8 9 9 9 9 9 9 9 9 8 6 6 5 5 5 5 5 6 5 5 4 4 4 4 4 5 6 7 6 6 5
2 4 4 3 4 2 1 2 7 1 5 7 7 6 6 6 6 7 8 8 9 8 8 8 9 8 9 8 7 7 6 5 6 6 6 6 5 4 4 4 4 4 4 5 5 5 6 6 6
5 7 7 6 5 1 2 4 7 5 7 5 5 5 6 6 7 7 7 7 7 8 8 8 9 9 8 8 8 7 8 8 8 8 7 6 5 4 4 3 3 4 4 4 5 5 6 7 7
7 6 5 5 4 4 2 3 8 5 7 6 6 6 6 6 6 7 8 8 9 9 9 8 9 9 9 9 8 8 8 8 7 7 6 6 5 4 5 4 3 4 4 4 4 5 6 7 7
3 6 6 2 4 5 3 5 7 4 3 4 4 4 5 6 6 7 7 7 8 8 8 8 9 9 9 9 9 8 8 6 6 6 6 5 5 5 5 5 4 4 3 4 4 4 5 6 6
4 3 5 6 1 3 6 7 7 2 3 3 4 5 6 7 7 7 7 7 7 8 8 7 8 8 9 9 9 8 8 8 7 7 6 5 5 5 6 5 4 3 2 2 3 3 4 5 6
4 8 5 4 1 4 7 6 5 6 8 8 7 7 7 7 7 7 6 6 6 6 6 6 6 7 7 8 8 7 8 8 8 7 7 6 6 6 6 5 5 3 2 1 1 2 3 4 4
3 4 5 4 4 4 4 7 6 7 8 9 9 8 8 7 7 7 6 6 6 6 5 6 7 7 7 8 7 8 8 8 8 7 7 7 6 6 6 5 5 4 3 2 0 1 2 3 4
3 5 6 3 2 4 3 7 6 7 7 8 8 8 7 7 6 6 6 6 6 6 6 6 6 6 6 7 7 8 8 9 9 8 8 8 7 6 6 5 5 4 4 2 1 0 1 2 3
Wind_Direction
149 135 106 67 49 50 25 343 343 22 46 39 46 66 79 62 63 108 322 128 141 147 164 170 170 170 171 171 171 169 166 164 163 162 161 161 161 161 161 159 157 155 151 145 140 135 127 112 95
126 122 82 61 71 57 5 348 21 27 75 91 50 52 61 53 40 59 37 147 142 152 160 170 176 175 176 177 179 179 177 175 174 173 173 172 172 173 173 171 170 171 170 166 158 155 141 120 94
127 90 83 65 67 82 21 346 16 38 37 38 58 49 55 29 0 336 275 154 138 149 162 179 184 183 183 185 187 187 187 186 186 186 186 186 187 186 184 185 187 187 186 184 182 178 169 145 104
108 52 57 65 64 26 18 325 328 354 28 24 54 57 58 21 349 357 54 119 130 139 168 195 192 193 194 195 196 196 197 197 199 198 198 199 198 197 199 201 203 204 203 201 203 205 206 203 174
70 77 65 59 53 19 14 352 4 41 42 19 41 66 39 3 16 44 58 68 102 104 175 225 210 210 211 211 211 209 208 208 209 210 209 208 210 209 210 212 215 216 215 215 217 222 222 227 235
63 70 81 98 73 32 18 8 16 34 33 18 24 68 48 8 17 26 43 47 53 59 36 341 273 248 241 235 231 229 226 222 220 220 220 218 218 219 219 220 222 223 225 225 225 230 232 235 245
101 84 109 139 130 52 48 39 33 23 36 18 358 61 42 14 10 19 43 46 44 40 28 357 342 316 288 270 258 249 246 241 236 232 230 228 227 227 227 228 228 230 231 231 232 235 240 245 251
117 97 93 141 157 132 20 71 55 35 37 14 23 53 28 355 5 35 42 40 36 32 23 8 352 346 332 313 293 283 274 263 255 248 243 238 235 233 234 235 236 237 237 235 236 237 240 243 249
90 80 136 193 177 151 48 89 69 46 55 45 44 51 35 14 31 43 39 30 25 24 15 8 356 352 342 323 313 306 295 283 273 262 256 252 243 239 239 240 241 243 243 241 239 238 240 242 247
78 117 178 168 148 131 91 78 95 71 49 45 49 40 39 43 45 45 38 26 16 7 0 1 352 346 337 327 324 317 303 292 283 272 264 256 246 240 239 240 245 248 248 248 244 240 240 241 235
83 126 128 100 117 120 106 83 66 109 64 50 70 34 32 43 44 44 35 22 3 350 350 348 339 340 339 332 327 324 315 306 292 281 269 260 251 244 239 234 243 250 251 248 246 242 231 218 216
93 64 95 122 119 99 108 110 82 70 115 105 87 69 52 47 39 30 19 6 354 353 346 342 342 339 338 335 324 318 317 313 306 294 280 265 252 240 231 226 227 230 236 234 226 219 217 215 220
92 96 63 89 89 90 94 92 104 88 89 78 76 68 61 52 35 17 7 2 356 351 342 337 335 339 334 331 322 324 311 304 300 296 285 264 251 249 241 234 227 223 224 223 218 211 212 217 220
100 96 95 87 87 87 102 90 97 125 103 80 71 61 52 39 19 9 3 356 351 343 336 331 330 334 335 325 313 306 307 304 301 296 287 274 251 245 242 240 230 225 222 220 215 210 208 212 210
96 90 77 92 100 127 107 63 66 142 107 85 70 56 38 20 11 1 345 338 335 331 330 329 328 339 333 323 313 314 304 302 295 291 289 280 264 251 242 236 232 226 221 216 213 209 199 208 212
86 97 141 211 159 157 128 176 216 127 115 100 73 42 19 353 346 338 338 339 336 332 330 328 335 333 327 320 309 306 303 299 294 293 290 284 274 258 244 237 235 222 210 202 202 192 194 206 201
92 169 209 198 182 152 156 191 194 124 127 124 93 16 348 337 338 339 341 339 335 331 327 326 327 328 325 320 311 303 299 295 295 296 291 287 281 267 245 237 237 222 210 205 208 194 190 196 200
205 205 207 204 183 141 156 179 152 121 136 145 151 323 327 326 319 325 334 332 332 330 327 325 327 328 325 320 316 311 306 301 298 297 293 292 285 276 256 240 234 219 212 211 207 195 182 184 186
161 161 174 189 128 132 166 178 189 149 141 166 226 283 303 309 311 327 330 330 333 333 332 330 331 329 332 329 327 320 316 311 305 294 297 297 291 282 263 252 237 221 218 214 205 195 185 189 160
108 126 127 70 67 110 137 227 245 196 199 212 229 260 289 313 325 327 325 328 329 326 327 329 331 329 331 325 311 290 289 291 286 288 297 296 294 287 274 252 241 227 221 217 207 194 182 188 173
97 155 176 158 74 61 83 324 253 244 211 223 241 261 289 303 308 315 320 320 326 327 326 329 327 328 328 327 321 317 311 304 309 312 309 300 297 285 272 252 242 231 222 220 212 200 191 190 187
180 216 150 137 120 251 137 281 276 241 254 254 261 278 287 296 301 308 317 320 322 320 323 326 329 330 331 334 336 335 328 318 307 305 300 302 296 290 277 258 243 235 227 224 218 205 196 184 185
143 63 84 111 128 69 41 211 289 253 256 257 257 265 275 286 296 304 309 310 313 317 324 330 333 334 337 341 341 337 330 315 312 313 313 314 310 299 290 268 251 244 231 223 217 207 201 194 189
106 70 57 50 73 347 236 187 280 232 227 243 242 254 270 285 299 305 307 314 316 320 328 335 338 335 338 341 342 344 337 330 328 329 327 324 317 310 307 290 262 251 238 225 216 214 208 202 196
64 76 29 4 6 264 262 210 255 253 229 221 226 244 266 284 295 300 308 316 318 323 329 333 337 335 336 341 343 341 336 332 329 327 326 328 326 321 320 314 287 262 241 229 217 214 214 204 201
76 120 143 209 253 290 316 251 261 268 238 220 218 237 270 288 291 292 294 302 309 315 323 331 335 332 336 341 338 337 339 337 331 330 329 326 319 312 316 315 298 283 257 233 217 215 214 205 204
110 94 150 134 180 295 293 290 304 222 245 236 242 253 272 282 289 291 296 303 308 313 318 326 332 332 336 341 339 340 343 344 340 336 338 336 330 327 333 330 322 310 289 249 216 212 211 204 207
104 138 94 103 123 303 303 291 267 254 247 243 242 247 262 277 287 293 298 302 307 309 313 327 333 330 333 342 344 345 342 344 343 344 347 344 339 339 338 339 333 324 317 287 221 207 206 198 203
106 87 99 106 143 160 294 283 232 231 233 228 234 237 250 264 274 281 291 298 306 314 323 332 336 338 342 343 343 347 346 346 349 352 350 345 341 343 346 342 339 338 340 332 272 191 180 191 197
167 154 145 145 211 169 201 270 271 246 243 225 231 238 247 258 268 276 287 302 313 320 325 330 332 335 336 339 346 347 346 350 356 356 355 352 350 349 349 346 351 353 353 351 12 185 177 178 190
Height
1527 1528 1529 1531 1533 1541 1545 1541 1535 1533 1533 1534 1532 1532 1534 1538 1540 1545 1541 1540 1541 1543 1544 1545 1547 1548 1549 1550 1551 1552 1552 1552 1553 1553 1554 1554 1554 1554 1554 1555 1555 1555 1555 1555 1555 1556 1556 1555 1555
1527 1528 1531 1531 1540 1553 1550 1542 1538 1536 1535 1535 1534 1535 1537 1539 1540 1541 1541 1541 1542 1544 1545 1546 1547 1548 1549 1550 1551 1552 1552 1552 1553 1553 1553 1553 1554 1554 1554 1554 1554 1554 1555 1555 1555 1555 1555 1555 1555
1529 1530 1532 1534 1545 1553 1550 1543 1540 1538 1537 1536 1537 1538 1540 1543 1543 1543 1543 1543 1544 1545 1546 1547 1548 1549 1550 1550 1551 1551 1552 1552 1552 1553 1553 1553 1553 1553 1553 1553 1554 1554 1554 1554 1554 1555 1555 1555 1555
1530 1532 1533 1540 1549 1548 1546 1543 1540 1538 1538 1538 1539 1542 1544 1546 1545 1545 1544 1544 1545 1546 1547 1548 1549 1549 1550 1550 1551 1551 1551 1552 1552 1552 1552 1552 1552 1552 1552 1552 1553 1553 1553 1553 1553 1554 1554 1555 1555
1530 1532 1539 1548 1549 1546 1544 1543 1541 1540 1541 1542 1541 1544 1546 1547 1547 1546 1546 1546 1547 1547 1548 1549 1549 1549 1550 1550 1550 1550 1550 1551 1551 1551 1551 1551 1551 1551 1551 1551 1552 1552 1552 1552 1553 1553 1553 1554 1554
1532 1533 1548 1554 1550 1547 1546 1545 1544 1544 1544 1544 1544 1546 1549 1549 1548 1548 1547 1547 1548 1548 1549 1549 1549 1549 1549 1549 1549 1549 1549 1550 1549 1549 1550 1550 1550 1550 1550 1550 1550 1551 1551 1551 1552 1552 1552 1553 1553
1533 1537 1547 1550 1551 1549 1547 1546 1547 1547 1547 1548 1547 1548 1550 1550 1550 1549 1549 1548 1548 1548 1548 1548 1548 1548 1548 1548 1548 1548 1548 1548 1548 1548 1548 1548 1548 1548 1548 1549 1549 1549 1549 1550 1550 1551 1551 1552 1552
1532 1538 1547 1550 1550 1550 1548 1548 1550 1549 1550 1550 1549 1551 1552 1553 1551 1550 1549 1549 1549 1548 1548 1548 1547 1547 1547 1546 1546 1546 1546 1546 1546 1546 1546 1546 1546 1546 1546 1547 1547 1547 1548 1548 1549 1549 1550 1550 1551
1533 1542 1550 1549 1548 1549 1548 1549 1551 1552 1552 1552 1552 1553 1554 1553 1552 1551 1550 1549 1549 1548 1548 1547 1546 1545 1544 1544 1543 1543 1543 1543 1543 1543 1544 1544 1544 1544 1544 1545 1545 1546 1546 1546 1547 1548 1548 1549 1549
1533 1545 1545 1544 1544 1547 1548 1550 1552 1553 1553 1554 1555 1555 1555 1554 1553 1551 1550 1550 1549 1548 1547 1546 1545 1544 1542 1542 1541 1541 1540 1540 1540 1541 1541 1541 1541 1542 1542 1542 1543 1543 1544 1544 1545 1546 1546 1547 1548
1535 1541 1542 1544 1545 1546 1548 1551 1552 1553 1556 1556 1556 1556 1555 1554 1553 1552 1551 1550 1549 1548 1546 1545 1543 1542 1540 1539 1539 1538 1537 1537 1537 1537 1538 1538 1538 1538 1539 1540 1540 1541 1541 1542 1543 1544 1544 1545 1546
1537 1541 1542 1544 1546 1547 1549 1551 1553 1554 1557 1557 1557 1557 1556 1555 1554 1553 1552 1551 1549 1547 1546 1544 1542 1540 1538 1537 1535 1534 1534 1533 1533 1533 1534 1534 1534 1535 1535 1536 1537 1538 1539 1539 1540 1541 1542 1543 1544
1539 1543 1544 1546 1547 1549 1550 1552 1554 1556 1557 1558 1558 1557 1556 1556 1555 1554 1552 1551 1548 1546 1544 1542 1539 1537 1535 1534 1532 1531 1530 1529 1529 1529 1529 1529 1530 1530 1532 1532 1533 1534 1536 1536 1537 1538 1539 1541 1542
1540 1543 1546 1548 1549 1551 1552 1554 1555 1557 1558 1558 1558 1557 1557 1556 1555 1554 1552 1550 1547 1545 1542 1540 1537 1535 1532 1530 1529 1527 1526 1525 1525 1525 1525 1525 1525 1526 1527 1528 1529 1530 1532 1533 1534 1535 1537 1538 1540
1542 1546 1550 1551 1551 1553 1554 1557 1557 1557 1558 1558 1558 1558 1557 1556 1555 1553 1551 1549 1546 1544 1541 1538 1535 1532 1530 1527 1525 1524 1522 1521 1520 1520 1520 1520 1521 1521 1522 1523 1524 1526 1527 1529 1530 1532 1533 1535 1537
1545 1551 1555 1552 1551 1553 1557 1562 1558 1557 1558 1558 1558 1558 1557 1557 1555 1553 1551 1548 1545 1542 1539 1536 1533 1530 1527 1524 1522 1520 1518 1517 1516 1515 1515 1515 1516 1517 1517 1518 1519 1521 1523 1524 1526 1528 1530 1532 1534
1550 1556 1555 1553 1551 1552 1555 1559 1557 1557 1557 1558 1558 1558 1557 1556 1555 1552 1550 1547 1544 1541 1537 1534 1530 1527 1524 1521 1519 1516 1514 1513 1512 1511 1511 1511 1511 1512 1512 1513 1515 1516 1518 1520 1521 1523 1525 1528 1530
1553 1553 1553 1553 1551 1552 1556 1558 1557 1557 1557 1558 1558 1558 1557 1555 1554 1552 1549 1546 1543 1539 1536 1532 1528 1525 1521 1518 1516 1513 1511 1509 1508 1507 1506 1506 1506 1507 1507 1508 1510 1511 1513 1515 1517 1519 1521 1524 1526
1541 1548 1552 1551 1549 1553 1557 1558 1557 1557 1558 1557 1557 1557 1556 1555 1553 1551 1548 1545 1542 1538 1534 1530 1526 1522 1519 1516 1512 1510 1507 1506 1504 1503 1502 1502 1502 1502 1502 1504 1505 1507 1508 1510 1512 1514 1517 1519 1522
1543 1549 1552 1552 1551 1555 1559 1559 1557 1557 1557 1557 1556 1556 1555 1554 1552 1550 1547 1544 1540 1536 1533 1529 1525 1521 1518 1514 1511 1508 1505 1503 1501 1499 1499 1498 1497 1497 1498 1499 1500 1502 1503 1505 1507 1509 1512 1515 1517
1545 1549 1551 1554 1556 1557 1560 1562 1559 1556 1556 1556 1556 1555 1554 1553 1551 1549 1546 1543 1539 1535 1532 1528 1524 1520 1517 1513 1510 1506 1503 1501 1498 1496 1495 1494 1494 1494 1494 1495 1496 1497 1498 1500 1502 1505 1507 1510 1513
1549 1544 1546 1552 1561 1567 1563 1574 1561 1557 1556 1555 1554 1554 1553 1552 1550 1548 1545 1542 1538 1535 1531 1528 1524 1520 1516 1512 1509 1505 1502 1498 1496 1494 1492 1491 1490 1490 1490 1491 1492 1493 1494 1496 1498 1500 1502 1505 1507
1545 1545 1548 1552 1560 1569 1567 1573 1565 1558 1557 1554 1552 1552 1552 1551 1549 1547 1545 1542 1538 1535 1531 1527 1524 1520 1516 1512 1508 1504 1501 1498 1495 1492 1490 1489 1488 1487 1487 1487 1488 1488 1489 1491 1493 1495 1498 1500 1502
1544 1550 1555 1562 1567 1575 1568 1574 1567 1561 1555 1551 1550 1550 1550 1550 1548 1546 1544 1541 1538 1534 1531 1527 1523 1519 1516 1512 1508 1504 1500 1497 1494 1491 1489 1487 1485 1485 1484 1484 1484 1485 1486 1487 1489 1491 1493 1495 1498
1548 1561 1576 1576 1583 1578 1567 1570 1564 1551 1549 1549 1549 1549 1549 1548 1547 1545 1543 1540 1537 1534 1530 1527 1523 1519 1515 1512 1508 1504 1501 1497 1494 1491 1488 1485 1484 1483 1482 1481 1481 1482 1482 1484 1485 1487 1489 1491 1494
1553 1560 1577 1583 1586 1580 1568 1569 1557 1548 1546 1547 1547 1548 1548 1547 1546 1544 1542 1540 1537 1533 1530 1526 1523 1519 1515 1512 1508 1504 1501 1497 1494 1491 1488 1485 1483 1481 1480 1480 1479 1479 1479 1480 1482 1483 1485 1487 1490
1553 1561 1563 1576 1576 1581 1574 1563 1551 1546 1546 1546 1546 1546 1546 1546 1545 1543 1541 1539 1536 1533 1530 1526 1523 1519 1516 1512 1508 1505 1501 1498 1494 1491 1488 1485 1483 1481 1479 1478 1477 1477 1477 1477 1478 1480 1482 1484 1486
1550 1559 1569 1575 1581 1585 1577 1569 1561 1548 1546 1545 1544 1544 1545 1544 1543 1542 1540 1538 1536 1533 1530 1526 1523 1520 1516 1513 1509 1505 1501 1498 1494 1491 1488 1485 1483 1481 1479 1477 1476 1475 1475 1475 1475 1476 1478 1480 1482
1554 1560 1569 1578 1578 1586 1585 1572 1548 1544 1541 1541 1541 1542 1543 1543 1542 1541 1539 1537 1535 1532 1530 1526 1523 1520 1517 1513 1510 1506 1502 1498 1495 1491 1488 1485 1483 1480 1478 1476 1475 1474 1473 1473 1473 1474 1476 1478 1480
1548 1554 1565 1573 1576 1581 1585 1573 1541 1539 1538 1538 1539 1540 1541 1541 1540 1539 1538 1536 1534 1532 1529 1526 1523 1520 1517 1514 1510 1507 1503 1499 1495 1492 1489 1486 1483 1480 1478 1476 1474 1473 1472 1472 1472 1473 1474 1476 1477